ASTRA 2E

Last updated on Thu Oct 30 2025 00:02:49 GMT+0000 (Coordinated Universal Time)

1 39285U 13056A 25302.47662441 .00000160 00000+0 00000+0 0 9993 2 39285 0.0613 345.0928 0002575 245.5233 7.5599 1.00274308 44102
UTC large
Height (km)
Speed (km/s)
/
Latitude / Longitude
Inclination (degrees)
Orbital Period (minutes)
Azimuth
Elevation
Range (km)
Doppler Factor

Next 0 passes for location: London (51.5072 / 0.1276)

Sorry there are no passes over London.